WATER LEVELS

Elbe

Guaranteed water level and forecast    Ústí nad Labem-Střekov

Guaranteed water level
165 cm
on 19.07.2024 more information
Forecast
155 cm
on 20.07.2024 07:00
Tendency
Slowly decreasing
on 20.07.2024 tendency methodology
Assumption
140 cm
on 21.07.2024 07:00
(Source data ČHMÚ a Povodí Labe)

Ústí nad Labem

Date and time (UTC) H (cm) Q (m³/s)
20. 7. 2024 04:10 156 118
20. 7. 2024 04:00 156 118
20. 7. 2024 03:00 158 121
20. 7. 2024 02:00 159 122
20. 7. 2024 01:00 160 124
20. 7. 2024 00:00 161 125
19. 7. 2024 23:00 167 134
19. 7. 2024 22:00 167 134
19. 7. 2024 21:00 170 138
19. 7. 2024 20:00 175 146
19. 7. 2024 19:00 178 151
19. 7. 2024 18:00 176 148
19. 7. 2024 17:00 172 142
19. 7. 2024 16:00 170 138

H - water level, Q - discharge
more information

Mělník

Date and time (UTC) H (cm) Q (m³/s)
20. 7. 2024 04:10 260 -
20. 7. 2024 04:00 259 -
20. 7. 2024 03:00 262 -
20. 7. 2024 02:00 270 -
20. 7. 2024 01:00 261 -
20. 7. 2024 00:00 258 -
19. 7. 2024 23:00 271 -
19. 7. 2024 22:00 270 -
19. 7. 2024 21:00 266 -
19. 7. 2024 20:00 258 -
19. 7. 2024 19:00 255 -
19. 7. 2024 18:00 263 -
19. 7. 2024 17:00 275 -
19. 7. 2024 16:00 266 -

H - water level, Q - discharge
more information

Kostelec nad Labem

Date and time (UTC) H (cm) Q (m³/s)
20. 7. 2024 04:10 399 -
20. 7. 2024 04:00 398 -
20. 7. 2024 03:00 403 22
20. 7. 2024 02:00 397 19
20. 7. 2024 01:00 401 17
20. 7. 2024 00:00 403 29
19. 7. 2024 23:00 398 30
19. 7. 2024 22:00 401 21
19. 7. 2024 21:00 400 21
19. 7. 2024 20:00 397 33
19. 7. 2024 19:00 402 15
19. 7. 2024 18:00 396 12
19. 7. 2024 17:00 397 10
19. 7. 2024 16:00 402 18

H - water level, Q - discharge
more information

Přelouč

Date and time (UTC) H (cm) Q (m³/s)
20. 7. 2024 04:00 50 24
20. 7. 2024 03:00 45 21
20. 7. 2024 02:00 43 20
20. 7. 2024 01:00 51 25
20. 7. 2024 00:00 53 26
19. 7. 2024 23:00 53 26
19. 7. 2024 22:00 48 23
19. 7. 2024 21:00 46 22
19. 7. 2024 20:00 52 25
19. 7. 2024 19:00 54 27
19. 7. 2024 18:00 54 27
19. 7. 2024 17:00 45 21
19. 7. 2024 16:00 44 20

H - water level, Q - discharge
more information


Vltava

Praha-Chuchle

Date and time (UTC) H (cm) Q (m³/s)
20. 7. 2024 04:10 58 66.4
20. 7. 2024 04:00 58 66
20. 7. 2024 03:00 58 66
20. 7. 2024 02:00 58 66
20. 7. 2024 01:00 58 66
20. 7. 2024 00:00 58 66
19. 7. 2024 23:00 58 66
19. 7. 2024 22:00 58 66
19. 7. 2024 21:00 57 64
19. 7. 2024 20:00 58 66
19. 7. 2024 19:00 58 66
19. 7. 2024 18:00 57 64
19. 7. 2024 17:00 59 69
19. 7. 2024 16:00 61 76

H - water level, Q - discharge
more information

VD Orlík

Date and time (UTC) H (m n. m.) Q (m³/s)
20. 7. 2024 04:10 347.52 0
20. 7. 2024 04:00 347.52 0
20. 7. 2024 03:00 347.52 0
20. 7. 2024 02:00 347.50 0
20. 7. 2024 01:00 347.51 0
20. 7. 2024 00:00 347.50 0
19. 7. 2024 23:00 347.48 0
19. 7. 2024 22:00 347.50 0
19. 7. 2024 21:00 347.47 218
19. 7. 2024 20:00 347.51 53
19. 7. 2024 19:00 347.51 0
19. 7. 2024 18:00 347.50 0
19. 7. 2024 17:00 347.49 0
19. 7. 2024 16:00 347.48 0

H - water level, Q - outflow

VD Kořensko

Date and time (UTC) H (m n. m.) Q (m³/s)
20. 7. 2024 04:10 352.52 33.1
20. 7. 2024 04:00 352.52 33
20. 7. 2024 03:00 352.53 33
20. 7. 2024 02:00 352.53 -
20. 7. 2024 01:00 352.54 33
20. 7. 2024 00:00 352.54 -
19. 7. 2024 23:00 352.54 -
19. 7. 2024 22:00 352.54 32
19. 7. 2024 21:00 352.54 -
19. 7. 2024 20:00 352.54 32
19. 7. 2024 19:00 352.54 32
19. 7. 2024 18:00 352.54 32
19. 7. 2024 17:00 352.53 32
19. 7. 2024 16:00 352.52 -

H - water level, Q - outflow

České Budějovice

Date and time (UTC) H (cm) Q (m³/s)
20. 7. 2024 04:00 98 11.5
20. 7. 2024 03:00 99 14
20. 7. 2024 02:00 99 14
20. 7. 2024 01:00 99 14
20. 7. 2024 00:00 99 14
19. 7. 2024 23:00 99 16
19. 7. 2024 22:00 98 16
19. 7. 2024 21:00 100 14
19. 7. 2024 20:00 107 18
19. 7. 2024 19:00 91 10
19. 7. 2024 18:00 94 12
19. 7. 2024 17:00 95 12
19. 7. 2024 16:00 93 13

H - water level, Q - discharge
more information


Morava

Strážnice

Date and time (UTC) H (cm) Q (m³/s)
20. 7. 2024 04:00 114 23.6
20. 7. 2024 03:00 114 24
20. 7. 2024 02:00 114 24
20. 7. 2024 01:00 114 24
20. 7. 2024 00:00 114 24
19. 7. 2024 23:00 115 24
19. 7. 2024 22:00 115 24
19. 7. 2024 21:00 116 25
19. 7. 2024 20:00 117 25
19. 7. 2024 19:00 118 25
19. 7. 2024 18:00 117 25
19. 7. 2024 17:00 117 25
19. 7. 2024 16:00 117 25

H - water level, Q - discharge
more information

Kroměříž

Date and time (UTC) H (cm) Q (m³/s)
20. 7. 2024 04:00 143 26.1
20. 7. 2024 03:00 144 27
20. 7. 2024 02:00 143 26
20. 7. 2024 01:00 139 24
20. 7. 2024 00:00 137 23
19. 7. 2024 23:00 136 22
19. 7. 2024 22:00 136 22
19. 7. 2024 21:00 137 23
19. 7. 2024 20:00 136 22
19. 7. 2024 19:00 136 22
19. 7. 2024 18:00 137 23
19. 7. 2024 17:00 137 23
19. 7. 2024 16:00 136 22

H - water level, Q - discharge
more information
Source data
Labe Basin Vltava Basin Povodí Moravy ČHMÚ
Po vodě ekologicky, levně a v pohodě
backgroung on backgroung off